Regional Weather Roundup
Issued by NWS

Home | Current Version | Previous Version | Text Only | Print | Product List | Glossary Off
Versions: 1 2 3 4 5 6 7 8 9 10 11 12 13 14 15 16 17 18 19 20 21 22 23 24 25 26 27 28 29 30 31 32 33 34 35 36 37 38 39 40 41 42 43 44 45 46 47 48 49 50

754
ASUS45 KBOI 191510
RWRID

IDAHO REGIONAL WEATHER ROUNDUP
NATIONAL WEATHER SERVICE BOISE ID
800 AM MST THU JAN 19 2017

NOTE: "FAIR" INDICATES FEW OR NO CLOUDS BELOW 12000 FEET
WITH NO SIGNIFICANT WEATHER AND/OR OBSTRUCTIONS TO VISIBILITY

IDZ012-014-191600-
SOUTHWEST IDAHO


CITY           SKY/WX    TMP DP  RH WIND       PRES   REMARKS
BOISE          CLOUDY    38  33  82 SE12      29.64R WCI  30
CALDWELL       CLOUDY    35  33  92 SE16      29.65R WCI  25
MOUNTAIN HOME  MOCLDY    33  33 100 E21       29.67R WCI  21
$$

IDZ016-017-191600-
SOUTHCENTRAL IDAHO


CITY           SKY/WX    TMP DP  RH WIND       PRES   REMARKS
BURLEY         LGT SNOW  34  30  85 S22G28    29.67S FOG     WCI  22
JEROME         LGT SNOW  30  29  96 NE10      29.69F FOG     WCI  21
TWIN FALLS     CLOUDY    36  30  79 S17       29.66S WCI  26
$$

IDZ019>023-191600-
SOUTHEAST IDAHO


CITY           SKY/WX    TMP DP  RH WIND       PRES   REMARKS
IDAHO FALLS    LGT SNOW  24  24 100 N3        29.72S FOG
POCATELLO      LGT SNOW  34  28  79 S15G21    29.71R WCI  24
REXBURG        LGT SNOW  26  25  96 NE3       29.71S FOG
$$

IDZ006-010-011-018-031-032-191600-
CENTRAL IDAHO MOUNTAINS


CITY           SKY/WX    TMP DP  RH WIND       PRES   REMARKS
MCCALL         LGT SNOW  32  31  96 S5        29.55S FOG     WCI  27
HAILEY         SNOW      27  27 100 CALM      29.70R VSB 1/2
STANLEY          N/A     31  29  92 SE9       29.59R WCI  23
SALMON         CLOUDY    19  18  93 CALM      29.64S
CHALLIS        CLOUDY    18  17  96 CALM      29.63S
$$

IDZ002-004-006-007-026-191600-
NORTHERN IDAHO


CITY           SKY/WX    TMP DP  RH WIND       PRES   REMARKS
LEWISTON       LGT RAIN  38  33  82 SE5       29.61R WCI  34
LOWELL           N/A     32  31  96 CALM      29.65R
COEUR D`ALENE  CLOUDY    38  35  89 S8        29.55R WCI  32
MULLAN PASS    LGT SNOW  30  27  88 SW6       29.50S FOG     WCI  24
$$




USA.gov is the U.S. government's official web portal to all federal, state and local government web resources and services.